Location: York
(31.8935°S, 116.7682°E)
Time: 16:16:48
(UTC+08:00)

Explorer 11/Cluster Stage 4 - Visible Passes

Search period start: 25 September 2022 00:00
Search period end: 05 October 2022 00:00
Orbit: 466 x 1249 km, 28.8° (Epoch: 24 September)

Date Brightness Start Highest point End Pass type
(mag) Time Alt. Az. Time Alt. Az. Time Alt. Az.
25 Sep 9.2 02:30:10 16° ENE 02:30:10 16° ENE 02:31:54 10° E visible
25 Sep 7.3 04:12:12 43° NW 04:14:20 61° NNE 04:21:58 10° E visible
26 Sep 9.4 02:18:30 13° E 02:18:30 13° E 02:19:21 10° E visible
26 Sep 7.1 04:00:31 53° NW 04:01:49 63° N 04:09:18 10° E visible
27 Sep 6.9 03:48:50 62° NNW 03:49:20 65° N 03:56:38 10° E visible
27 Sep 7.5 05:31:30 10° W 05:38:15 66° N 05:46:10 10° ENE visible
28 Sep 7.0 03:37:10 65° NNE 03:37:10 65° NNE 03:43:57 10° E visible
28 Sep 7.4 05:19:12 10° W 05:25:42 63° N 05:33:27 10° ENE visible
29 Sep 7.2 03:25:31 56° NE 03:25:31 56° NE 03:31:17 10° E visible
29 Sep 7.4 05:07:33 13° W 05:13:10 60° N 05:20:43 10° ENE visible
30 Sep 7.6 03:13:54 43° ENE 03:13:54 43° ENE 03:18:36 10° E visible
30 Sep 7.3 04:55:56 17° W 05:00:40 56° N 05:07:57 10° ENE visible
01 Oct 8.1 03:02:20 32° ENE 03:02:20 32° ENE 03:05:56 10° E visible
01 Oct 7.3 04:44:22 22° WNW 04:48:10 51° NNW 04:55:10 10° ENE visible
02 Oct 8.6 02:50:49 23° ENE 02:50:49 23° ENE 02:53:16 10° E visible
02 Oct 7.3 04:32:51 27° WNW 04:35:41 46° NNW 04:42:21 10° ENE visible
03 Oct 9.0 02:39:22 16° ENE 02:39:22 16° ENE 02:40:36 10° ENE visible
03 Oct 7.3 04:21:24 33° NW 04:23:13 41° NNW 04:29:31 10° NE visible
04 Oct 7.2 04:10:02 35° NNW 04:10:46 37° NNW 04:16:39 10° NE visible
